56P/Slaughter-Burnham

Epoch 2005 Jan. 30.0 TT = JDT 2453400.5

T 2005 Jan. 15.01888 TT                                 Kobayashi

q   2.5352119            (2000.0)            P               Q

n   0.08532725     Peri.   44.09444     +0.86114113     -0.50725003

a   5.1098823      Node   346.27186     +0.41827404     +0.74461376

e   0.5038610      Incl.    8.15545     +0.28893387     +0.43387527

P  11.55

From 513 observations 1958-2005, mean residual 1".00.

   Nongravitational parameters Y1 = +0.35 +/- 0.03, Y2 = +0.0014 +/- 0.0001,

   Sublimating molecule = CO (or N2) using Yabushita's theory (MN 283, 347).

Residuals in seconds of arc

1958/                     040906 215  0.5-  0.7-    041011 939  0.5+  0.0     

581210 690  0.2+  2.2-    040906 215  0.8-  0.7-    041011 J78  1.2+  0.4+    

581211 690  1.6+  1.0-    040906 215  1.1-  0.6-    041011 J78  1.2+  0.2+    

581212 690  1.9-  1.4-    040906 615  0.6-  1.0-    041013 691  0.4+  0.1+    

581213 690  0.6-  0.9-    040906 615  1.0-  1.2-    041013 691  0.2+  0.3-    

581215 690  1.2+  0.9+    040906 615  0.7-  0.5-    041013 691  0.4+  0.2-    

1959/                     040907 048  1.4-  0.3+    041014 G92  0.7+  0.0     

590202 689  1.4+  0.0     040907 048  1.2-  0.1+    041014 G92  0.8+  0.3-    

590202 689  1.8+  0.0     040907 048  1.8-  0.1-    041014 G92  1.1+  0.5-    

590206 689  1.0+  0.5-    040907 048  1.0-  0.2+    041015 I77  2.3-  0.3+    

590206 689  1.2+  0.3-    040907 048  1.8-  0.0     041015 I77  0.0   0.0     

590226 689  0.9+  1.1+    040908 360  0.4-  0.2+    041015 I77  0.4+  0.1-    

590226 689  1.2+  1.2+    040908 360  0.4-  0.0     041015 G92  1.1+  0.4-    

590303 662  2.9-  0.3+    040908 048  1.7-  0.1+    041015 G92  1.2+  0.4-    

590303 662  1.1-  1.3- Y  040908 048  0.6-  0.2+    041015 G92  1.7+  0.5-    

590308 689  0.1-  0.2+    040908 048  0.9-  0.1-    041015 352  0.2+  1.8-    

590401 689  2.3-  0.4-    040908 048  0.7-  0.2+    041015 352  0.4+  0.2+    

590409 689  1.3-  1.3+    040908 048  0.0   0.3+    041015 352  1.3+  0.2-    

1969/                     040908 048  0.5-  0.0     041015 J78  1.0+  0.3-    

691104 691  2.7-  1.7-    040908 046  1.2-  0.2-    041015 J78  0.7+  0.4-    

691105 691  1.6-  0.4-    040908 046  1.1-  0.5+    041015 J78  0.0   0.1+    

691105 691  1.7-  0.6-    040908 046  0.7-  0.1-    041015 A10  1.0+  0.8+    

1981/                     040908 046  1.0-  0.2-    041015 A10  0.2-  0.4-    

810709 801  0.9+  3.1+    040908 046  1.0-  0.2-    041016 A33  0.6+  0.2-    

810710 801 (0.5-  4.1+)   040908 A32  0.9-  0.5-    041016 A33  0.5+  0.2-    

810728 801  0.8+  0.5+    040908 A32  1.2-  0.5-    041016 J78  2.1+  0.2-    

810826 801  2.0+  1.8+    040909 046  0.6-  0.3+    041016 J78  1.5+  0.1+    

810925 801 (0.3+  6.0+)   040909 046  0.6-  0.4-    041016 J78  0.4+  0.6+    

811002 557 (3.5-  7.4-)Y  040909 046  0.9-  0.4+    041016 939  1.0+  0.3-    

811031 801 (3.2+  5.2+)   040909 046  0.5-  0.2-    041016 939  0.8+  0.2+    

811119 049 (5.2+  1.0+)   040909 046  0.2-  0.1-    041016 939  1.0+  0.3+    

811123 801  1.4+  1.7+    040909 A32  0.8-  0.4-    041017 349  0.1+  0.2-    

811126 049  3.3+  1.6+    040909 A32  0.1-  0.2-    041017 349  0.5+  0.0     

811129 707  2.9+  1.2+    040909 A32  0.3-  0.0     041017 349  0.6+  0.1+    

811220 801  3.4+  1.4+    040910 615  0.5-  0.0     041021 712  0.3+  0.8+    

811225 010 (4.3-  0.7-)   040910 615  0.8-  0.1+    041021 712 (1.7+  3.7-)   

1982/                     040910 615  0.7-  0.1+    041021 712  0.0   0.9+    

820120 010 (7.3-  0.8-)   040910 691  2.5-  1.7-    041021 712  0.9+  1.4+    

1992/                     040910 691  2.2-  0.8-    041021 712  1.9+  0.1+    

920924 693  0.7-  0.4+    040910 691  2.5-  1.4-    041021 A32  1.0+  0.4+    

920924 693  0.1-  1.2+    040910 A41  2.0-  1.8-    041021 A32  0.5+  0.3+    

920924 693  0.4+  0.1+    040910 A41  2.5-  2.2-    041021 A32  1.1+  0.4+    

920924 693  0.4-  0.2-    040910 046  0.3-  0.1+    041026 213  1.2+  0.8+    

920925 693  0.2-  0.1-    040910 046  0.3-  0.2-    041026 213  1.6+  0.5+    

920925 693  0.0   0.1+    040910 046  0.5-  0.1-    041026 213  1.3+  0.5+    

920925 693  0.2-  0.5-    040910 046  0.5-  0.1-    041027 712  1.6-  2.1+    

920925 693  0.3+  0.1-    040910 A41  2.0-  2.0-    041027 712  1.7+  0.5+    

920925 693  0.3-  0.4+    040911 A41  1.1-  1.1-    041027 712  0.2+  0.3+    

920925 693  0.0   0.2+    040911 A41  1.6-  1.5-    041029 J97  0.4+  0.0     

1993/                     040911 A41  2.9-  1.0-    041029 J97  1.7+  0.3+    

930722 691  1.6-  0.2+    040913 699  0.0   1.0-    041029 939  0.2+  0.3+    

930722 691  1.0-  0.2+    040913 699  0.2-  0.2+    041029 213  0.4+  0.5+    

930722 691  2.2-  0.5+    040913 699  2.7-  1.9-    041029 213  0.4+  0.4+    

930725 691  0.6-  0.1-    040913 699 (3.8-  2.7-)   041029 213  0.3+  0.4+    

930814 691  0.1-  0.1+    040913 349  0.4-  0.2-    041029 939  0.8+  0.5+    

930824 360  1.1-  0.3+    040913 349  0.3-  0.5-    041029 939  1.1+  0.6+    

930824 360  0.9-  0.4+    040913 349  0.3-  0.3-    041031 939  1.2+  0.1+    

930827 360  1.4-  0.1-    040914 A46  0.3-  0.5-    041031 939  1.1+  0.4+    

930827 360  0.7-  0.0     040914 A46  0.6-  0.1-    041031 939  0.8+  0.6+    

931011 360  0.4-  1.0+    040914 A46  1.2-  0.6-    041102 J97  2.0+  0.1-    

931011 360  0.8-  0.9+    040914 A46  0.8-  0.3-    041103 712  0.3-  0.6-    

931011 360  1.2-  0.4+    040914 A46  0.9-  0.6-    041106 D70  0.1+  0.3+    

931019 360  1.0-  0.8+    040914 A46  0.5-  0.6-    041106 D70  0.1+  0.4+    

931019 360  1.3-  0.7+    040914 699 (5.3-  3.3-)   041106 D70  0.4-  1.6+    

931020 657  2.4-  0.7+    040914 699  3.5-  2.4-    041106 J97  0.5+  0.9+    

931020 657  3.2-  1.6+    040914 699  1.6-  1.4-    041106 J97  0.8+  0.2+    

931020 657 (4.4-  1.3+)   040914 699 (4.2-  2.7-)   041107 360  0.2+  0.4+    

931108 658  0.7-  0.3+    040917 A46  0.5+  1.0-    041107 360  0.2+  0.5+    

931108 658  0.8-  0.3+    040917 A46  0.7+  0.1-    041108 A30  0.4+  0.5+    

931114 360  0.6-  0.1+    040917 A46  1.3-  0.9-    041108 A30  0.6+  0.2+    

931114 360  0.4-  0.4+    040917 A46  1.1-  0.3-    041109 D83  0.8+  0.8-    

931118 360  0.4-  0.6+    040917 A46  0.3-  0.4-    041109 D83  0.1+  0.5-    

931118 360  0.4-  0.9+    040917 704  0.5+  0.0     041109 D83  0.4+  0.4-    

931119 557  0.7-  0.5+    040917 704  0.2+  1.5+    041109 D83  0.4+  0.4-    

931119 557  0.7-  0.5+    040917 704  1.4-  0.4+    041109 352  0.6+  0.2+    

931119 557  1.1-  0.6+    040917 704  0.8-  0.4-    041109 352  0.2-  0.6-    

931120 557  1.1-  0.1+    040917 704 (4.2-  0.4+)   041109 352  1.2+  0.0     

931207 411  0.7-  0.4+    040917 048  2.3-  0.0     041112 704  0.3-  0.4-    

931207 411  1.2-  0.1+    040917 048  2.5-  0.0     041112 704  0.0   0.0     

931207 411  0.2-  0.6+    040917 048  2.2-  0.1-    041112 704  1.8+  2.9+    

931211 897  2.0-  1.4-    040917 048  0.9-  0.1+    041113 A02  0.7+  0.4+    

931211 897 (4.3-  1.0-)   040917 048  1.7-  0.2+    041113 A02  0.4+  0.4+    

931211 897  1.9-  0.2-    040917 A54 (7.9+  1.7+)   041113 939  0.9+  0.5+    

931212 360  0.4-  0.6+    040917 A54 (7.3+  1.5+)   041113 939  1.1+  0.2+    

931212 360  0.5-  0.5+    040918 A50  0.6+  0.5+    041113 939  1.1+  0.4+    

1994/                     040918 A50  0.4+  0.1+    041114 J97  1.2+  0.4+    

940102 897  0.0   3.5-    040918 A50  0.5+  0.4+    041114 J97  1.4+  0.6+    

940102 897  2.6+  2.6-    040918 A50  0.6+  0.4+    041114 J97  0.6+  0.6+    

940102 897  0.5-  1.0-    040918 A46  0.4+  0.3-    041116 A30  0.7+  0.2+    

940104 360  1.1+  0.5+    040918 A46  1.3-  0.7-    041116 A30  0.5+  1.1+    

940104 360  1.0+  0.1+    040918 A46  0.3-  0.6-    041118 170  0.8+  0.1+    

940203 360  0.6+  0.1-    040918 A46  0.3-  0.8-    041118 170  0.6+  0.1+    

940203 360  0.8+  0.1+    040918 A46  0.2-  0.6-    041118 170  0.7+  0.3+    

940302 360  0.7+  0.1-    040918 A46  0.8-  0.8-    041119 704  0.2-  0.9+    

940302 360  1.2+  0.5-    040918 704  1.0+  0.2-    041119 704  0.2+  0.9+    

1997/                     040918 704  0.5-  1.8+    041119 704  0.5+  0.5+    

970416 568  2.6+  1.5-    040918 704  0.6-  0.3-    041119 704  1.4+  1.1+    

970416 568  2.9+  1.7-    040918 704  0.0   0.6+    041120 A61 (6.8+  7.7+)   

970416 568  2.1+  1.4-    040918 704 (4.1-  0.2+)   041120 A61  0.6-  1.4-    

970416 568  3.1+  1.2-    040918 A01  0.9+  0.2-    041120 A61  0.0   1.2+    

970416 568  1.0+  0.2+    040918 939  0.9-  0.1-    041121 A30  1.2+  0.7+    

971230 568  2.3+  1.4-    040918 939  0.5-  0.1+    041121 A30  1.6+  0.5-    

971230 568  1.9+  1.0-    040918 939  0.4-  0.1-    041124 A41  2.9+  0.4-    

971230 568  1.9+  1.3-    040920 J97  0.8+  0.8+    041124 A41  1.5+  0.6-    

2004/                     040920 J97  1.6-  0.6+    041124 A41  2.4+  0.2+    

040715 704  0.1+  0.2-    040920 445  1.2+  0.5-    041126 213  1.6+  1.0+    

040715 704  0.2-  0.4+    040920 445  2.3+  0.7-    041201 360  0.1+  0.5+    

040715 704  0.1+  0.1+    040920 445  2.0+  0.8-    041201 360  0.1+  0.3+    

040715 704  0.2+  0.3+    040922 213  0.5-  0.2+    041207 704  0.8+  0.0     

040715 704  0.4+  0.7+    040922 213  0.5-  0.2+    041207 704  2.1+  0.7-    

040721 J87  0.6-  0.4+    040922 213  0.7-  0.0     041207 704  0.2-  0.7+    

040721 J87  0.3+  0.5-    040923 445  2.5+  1.1+    041207 704  1.9+  0.6+    

040721 J87  0.4-  0.1+    040923 445  1.1+  1.0+    041207 704  2.5+  0.9+    

040807 213  0.6-  0.2-    040923 445  0.1-  0.1+    041209 704  0.1+  0.5+    

040807 213  0.5-  0.0     040930 118  0.3+  0.2-    041209 704  0.7+  1.6+    

040807 213  0.5-  0.4-    040930 118  0.3+  0.1+    041209 704  1.0+  1.7+    

